Retour au catalogue

RUBIN 4/SL-8

ActifRadio amateurSSO
NORAD 27940·PAYLOAD·🇩🇪 Germany

Lancé Sep 27, 2003 depuis Plesetsk Cosmodrome

Loading…

Prochains Passages (prochaines 24 heures)

TLE

FraisSource: Space-Track

Époque: Sep 14, 2026, 10:40 UTC

1 27940U 03042B   26257.44511949  .00000280  00000-0  55949-4 0  9996
2 27940  98.3921  77.8447 0014236  77.1923 283.0871 14.69562563227678

Suivez RUBIN 4/SL-8 en temps réel avec AllMySat

Download on the App Store